This demonstration page uses our WeatherBlox Daily Observations layout. Learn more.

Left ArrowRight Arrow

36.17497, -115.13722

Hourly Observations for March 21, 2015

Temp ( °F °C ) Dew Point ( °F °C ) Humidity (%) Winds ( mph kmh ) Pressure ( in mb ) Visibility ( mi km ) Precip ( " mm )
12:53 am 00:53 Clear 61 16.1 25 -3.9 25 25 Calm 30.05 1018 10 16 0.00 0.00
1:53 am 01:53 Clear 60 15.6 25 -3.9 26 26 Calm 30.05 1018 10 16 0.00 0.00
2:53 am 02:53 Clear 55 12.8 25 -3.9 31 31 N 6 9 30.04 1017 10 16 0.00 0.00
3:53 am 03:53 Clear 55 12.8 21 -6.1 26 26 NW 6 9 30.04 1017 10 16 0.00 0.00
4:53 am 04:53 Clear 55 12.8 21 -6.1 26 26 NW 3 6 30.04 1017 10 16 0.00 0.00
5:53 am 05:53 Clear 54 12.2 23 -5 30 30 WNW 5 7 30.06 1018 10 16 0.00 0.00
6:53 am 06:53 Sunny 54 12.2 23 -5 30 30 NW 3 6 30.07 1018 10 16 0.00 0.00
7:53 am 07:53 Sunny 56 13.3 23 -5 28 28 Calm 30.09 1019 10 16 0.00 0.00
8:53 am 08:53 Sunny 63 17.2 18 -7.8 17 17 Calm 30.10 1019 10 16 0.00 0.00
9:53 am 09:53 Sunny 66 18.9 18 -7.8 16 16 SSE 3 6 30.10 1019 10 16 0.00 0.00
10:53 am 10:53 Sunny 70 21.1 20 -6.7 15 15 ESE 6 9 30.09 1019 10 16 0.00 0.00
11:53 am 11:53 Sunny 72 22.2 21 -6.1 15 15 SSE 5 7 30.07 1018 10 16 0.00 0.00
12:53 pm 12:53 Sunny 77 25 21 -6.1 12 12 SE 6 9 30.03 1017 10 16 0.00 0.00
1:53 pm 13:53 Sunny 81 27.2 20 -6.7 10 10 SE 14 22 29.99 1016 10 16 0.00 0.00
2:53 pm 14:53 Sunny 83 28.3 8 -13.3 6 6 S 9 15 29.96 1015 10 16 0.00 0.00
3:53 pm 15:53 Sunny 82 27.8 8 -13.3 6 6 SW 12 19 29.95 1014 10 16 0.00 0.00
4:53 pm 16:53 Sunny 83 28.3 6 -14.4 5 5 WSW 17 28 29.93 1014 10 16 0.00 0.00
5:53 pm 17:53 Sunny 82 27.8 10 -12.2 6 6 WSW 10 17 29.93 1014 10 16 0.00 0.00
6:53 pm 18:53 Sunny 79 26.1 10 -12.2 7 7 WSW 7 11 29.94 1014 10 16 0.00 0.00
7:53 pm 19:53 Clear 77 25 12 -11.1 8 8 WSW 5 7 29.95 1014 10 16 0.00 0.00
8:53 pm 20:53 Clear 74 23.3 14 -10 10 10 SSW 5 7 29.96 1014 10 16 0.00 0.00
9:53 pm 21:53 Clear 72 22.2 15 -9.4 11 11 SW 5 7 29.96 1015 10 16 0.00 0.00
10:53 pm 22:53 Clear 72 22.2 17 -8.3 12 12 SSW 7 11 29.97 1015 10 16 0.00 0.00
11:53 pm 23:53 Clear 71 21.7 19 -7.2 14 14 SSW 13 20 29.97 1015 10 16 0.00 0.00

Powered by AerisWeather